Location: Newark
(42.8481°N, 0.4872°E)
Time: 17:20:36
(UTC+00:00)

A-11 Canister half - Pass Details

Date: 01 November 2020
Orbit: 1525 x 1683 km, 47.3° (Epoch: 22 November)

Event Time Altitude Azimuth Distance (km) Brightness Sun altitude
Rises 10:43:53 0° 182° (S) 4,850 12.6 31.0°
Reaches altitude 10° 10:48:20 10° 165° (SSE) 3,839 12.7 31.2°
Maximum altitude 10:54:22 18° 126° (SE) 3,178 11.6 31.5°
Drops below altitude 10° 11:00:17 10° 87° (E) 3,770 11.2 31.7°
Sets 11:04:33 0° 70° (ENE) 4,732 11.5 31.9°
